Weather History for KCQX - April, 2012

Change the Weather History Date:

Saturday, April 14, 2012

  Actual Average Record
Temperature  
Mean Temperature 52 °F -  
Max Temperature 62 °F 50 °F 64 °F (2002)
Min Temperature 43 °F 37 °F 32 °F (1987)
Degree Days  
Heating Degree Days 13    
Growing Degree Days 2 (Base 50)    
Moisture  
Dew Point 36 °F    
Average Humidity 58    
Maximum Humidity 80    
Minimum Humidity 26    
Precipitation  
Precipitation 0.00 in - - ()
Sea Level Pressure  
Sea Level Pressure 30.09 in    
Wind  
Wind Speed 6 mph (WSW)    
Max Wind Speed 12 mph    
Max Gust Speed 23 mph    
Visibility 10 miles    
Events      
Averages and records for this station are not official NWS values.
T = Trace of Precipitation, MM = Missing Value Source: NWS Daily Summary

Daily Weather History Graph

Daily Weather History Graph

Search for Another Location

Airport or City:

Trip Planner

Search our weather history database for the weather conditions in past years. The results will help you decide how hot, cold, wet, or windy it might be!

Date:

Astronomy

Apr. 14, 2012 Rise Set
Actual Time 6:00 AM EDT 7:20 PM EDT
Civil Twilight 5:32 AM EDT 7:48 PM EDT
Nautical Twilight 4:57 AM EDT 8:23 PM EDT
Astronomical Twilight 4:21 AM EDT 9:00 PM EDT
Moon 2:27 AM EDT (4/14) 1:04 PM EDT (4/14)
Length of Visible Light 14h 16m
Length of Day
13h 19m
Last Quarter, 37% of the Moon is Illuminated
Apr 14
Last Quarter
Apr 21
New
Apr 29
First Quarter
May 5
Full
May 12
Last Quarter

Hourly Weather History & Observations

Time (EDT) Temp. Windchill Dew Point Humidity Pressure Visibility Wind Dir Wind Speed Gust Speed Precip Events Conditions
12:52 AM 46.9 °F - 37.0 °F 68% 30.08 in 10.0 mi Variable 5.8 mph - N/A   Clear
1:52 AM 45.0 °F - 37.0 °F 74% 30.07 in 10.0 mi Calm Calm - N/A   Clear
2:52 AM 43.0 °F - 36.0 °F 76% 30.07 in 10.0 mi Calm Calm - N/A   Clear
3:52 AM 44.1 °F 41.5 °F 34.0 °F 68% 30.08 in 10.0 mi West 4.6 mph - N/A   Clear
4:52 AM 46.0 °F 44.8 °F 30.9 °F 56% 30.08 in 10.0 mi NW 3.5 mph - N/A   Clear
5:52 AM 46.9 °F - 30.0 °F 52% 30.10 in 10.0 mi NW 5.8 mph - N/A   Clear
6:52 AM 48.9 °F - 30.0 °F 48% 30.12 in 10.0 mi NW 4.6 mph - N/A   Clear
7:52 AM 53.1 °F - 30.0 °F 41% 30.14 in 10.0 mi NW 8.1 mph - N/A   Clear
8:52 AM 57.9 °F - 27.0 °F 31% 30.15 in 10.0 mi Variable 4.6 mph - N/A   Clear
9:52 AM 59.0 °F - 25.0 °F 27% 30.15 in 10.0 mi Variable 6.9 mph - N/A   Clear
10:52 AM 61.0 °F - 26.1 °F 26% 30.15 in 10.0 mi WNW 6.9 mph - N/A   Clear
11:52 AM 59.0 °F - 37.9 °F 46% 30.14 in 10.0 mi SSW 6.9 mph - N/A   Clear
12:52 PM 60.1 °F - 33.1 °F 36% 30.12 in 10.0 mi SSW 10.4 mph - N/A   Clear
1:52 PM 59.0 °F - 35.1 °F 41% 30.10 in 10.0 mi South 10.4 mph 16.1 mph N/A   Clear
2:52 PM 57.0 °F - 39.9 °F 53% 30.09 in 10.0 mi SW 8.1 mph 19.6 mph N/A   Clear
3:52 PM 55.0 °F - 39.9 °F 57% 30.07 in 10.0 mi WSW 11.5 mph 20.7 mph N/A   Clear
4:52 PM 54.0 °F - 42.1 °F 64% 30.06 in 10.0 mi SW 10.4 mph 19.6 mph N/A   Clear
5:52 PM 52.0 °F - 42.1 °F 69% 30.06 in 10.0 mi SW 8.1 mph - N/A   Clear
6:52 PM 51.1 °F - 43.0 °F 74% 30.06 in 10.0 mi SSW 8.1 mph 16.1 mph N/A   Clear
7:52 PM 50.0 °F - 43.0 °F 77% 30.06 in 10.0 mi SW 9.2 mph 23.0 mph N/A   Clear
8:52 PM 50.0 °F - 43.0 °F 77% 30.06 in 10.0 mi SW 10.4 mph 19.6 mph N/A   Clear
9:52 PM 50.0 °F - 43.0 °F 77% 30.06 in 10.0 mi WSW 8.1 mph - N/A   Clear
10:52 PM 51.1 °F - 44.1 °F 77% 30.04 in 10.0 mi SW 6.9 mph - N/A   Clear
11:52 PM 51.1 °F - 45.0 °F 80% 30.04 in 10.0 mi SW 10.4 mph 17.3 mph N/A   Partly Cloudy